Back to catalog

ARIANE 44LP+ R/B

AliveHEO
NORAD 23538·ROCKET BODY·🇫🇷 France

Launched Mar 28, 1995 from Guiana Space Centre

Loading…

Next Passes (next 24 hours)

TLE

FreshSource: Space-Track

Epoch: Sep 14, 2026, 05:06 UTC

1 23538U 95016C   26257.21267128  .00003600  00000-0  11868-2 0  9998
2 23538   6.3661 109.9202 6023157 151.7157 261.5270  3.97977914331342

Track ARIANE 44LP+ R/B in real time with AllMySat

Download on the App Store